THOR ABLESTAR DEB, 355

Orbit data source: Space-Track

THOR ABLESTAR DEB, 355 is space debris in LEO originally from a launch on Thu, 29 Jun 1961 UTC launched from the Air Force Eastern Test Range (AFETR). Debris objects in space refer to the collection of defunct objects orbiting the Earth. Examples of debris include non-operational satellites, rocket bodies, and fragments generated from explosions, collisions, or faulty payload assembly.

Loading next visibility...
Identifier
355, 1961-015DV
Orbit
LEO
Last TLE update
16 hours ago
Origin
Manufacturer
Unknown
Mission
Spacecraft
Bus & Motor
Unknown
Mass
Unknown
Launch date (UTC)
1961-06-29 (64 years ago)
Launch vehicle
Unknown
Launch site
Air Force Eastern Test Range (AFETR)
Object type
Payload
Rocket body
Debris
Shape & HBR
Unknown
Radar Cross Section
Medium (>0.1 m² and <1 m²)

Expand to show TLE details & history

TLE from 16 hours ago
0 THOR ABLESTAR DEB
1   355U 61015DV  25186.03949531  .00000356  00000-0  72349-3 0  9994
2   355  67.2265  44.9778 0236090  92.3035  57.4532 13.33731200103254
Epoch: 2025-07-05T00:56Z
TLE epoch observation values (Epoch: 2025-07-05T00:56:52.394Z)
Latitude
25.62905°
Longitude
-84.08195°
Altitude
1,042.609 km
Speed
7.378 km/s
True Right ascension
14h 13m 40s
True Declination
25° 30' 01"
Sunlit
Object was in daylight at epoch
Visualization orbit readout
Latitude
43.04122°
Longitude
-96.9396°
Altitude
1,001.745 km
Speed
7.422 km/s
Apparent Right ascension
15h 04m 34s
Apparent Declination
5° 52' 12"
Sunlit
Object is in daylight
Visualization observer readout
Local Sidereal Time
04:58:17
Azimuth
36.511° NE
Elevation
-37.252°
Doppler factor
1
Orbital elements
Apogee altitude
1,308.398 km
Perigee altitude
953.826 km
Semi-major axis
7,509.249 km
Eccentricity
0.02361
Inclination
67.2265°
RAAN
44.9778°
Arg. of periapsis
92.3035°
True anomaly
Unknown
Mean anomaly
57.4532°
Eccentric anomaly
Unknown
Mean motion
3.3354 °/min
Orbital period
107.93 mins
BSTAR
0.00072349
Loading maneuver chart data...
Loading SW <> Apogee altitude chart data...

THOR ABLESTAR DEB Visibility forecast

Observer location: undefined°, undefined°

Span
Click to sort rows by Start time (UTC) header in descending order
Start Az.
Max El. time (UTC)
Max El. Az.
Max El.
End time (UTC)
End Az.
6 mins2025-07-05 18:26:59.494Z290.32° WNW2025-07-05 18:29:59.494Z319.05° NNW13.941°2025-07-05 18:32:59.494Z349.184° N
8 mins2025-07-06 00:09:59.494Z3.696° NNE2025-07-06 00:13:59.494Z57.255° ENE24.88°2025-07-06 00:17:59.494Z101.287° ESE
11 mins2025-07-06 01:59:59.494Z318.224° NNW2025-07-06 02:04:59.494Z237.758° WSW38.714°2025-07-06 02:10:59.494Z172.826° S
11 mins2025-07-06 15:55:59.494Z201.468° SSW2025-07-06 16:00:59.494Z147.189° SSE44.512°2025-07-06 16:06:59.494Z30.791° NE
|